Regional Weather Roundup
Issued by NWS

Home | Current Version | Previous Version | Graphics & Text | Print | Product List | Glossary On
Versions: 1 2 3 4 5 6 7 8 9 10 11 12 13 14 15 16 17 18 19 20 21 22 23 24 25 26 27 28 29 30 31 32 33 34 35 36 37 38 39 40 41 42 43 44 45 46 47 48 49 50
000
ASUS43 KDMX 282107
RWRIA

WEATHER ROUNDUP FOR IOWA
NATIONAL WEATHER SERVICE DES MOINES IA
400 PM CDT FRI AUG 28 2015

NOTE: "FAIR" INDICATES FEW OR NO CLOUDS BELOW 12,000 FEET WITH NO
SIGNIFICANT WEATHER AND/OR OBSTRUCTIONS TO VISIBILITY.

* - THESE STATIONS ARE NOT NWS STATIONS...THUS NOT UNDER NWS
QUALITY CONTROL.  THEY ALSO DO NOT REPORT WEATHER SUCH
AS PRECIPITATION OR FOG.

IAZ001>003-012>014-020>022-031>034-043>046-282200-
   NORTHWEST IOWA

CITY           SKY/WX    TMP DP  RH WIND       PRES   REMARKS
CARROLL *      PTSUNNY   72  72 100 SE5       29.83F FOG
CHEROKEE *     CLOUDY    64  64 100 N13       29.88R
DENISON *      CLOUDY    72  70  94 NW9       29.82S
LE MARS *      CLOUDY    64  63  94 NE14G21   29.91R
ORANGE CITY *  CLOUDY    64  61  88 NE10      29.92R
SHELDON *      CLOUDY    63  61  94 E13G20    29.92R
SIOUX CITY     CLOUDY    68  62  81 N17       29.87R
SPENCER        CLOUDY    62  58  86 NE17G23   29.92R
STORM LAKE *   FOG       63  63 100 E13       29.87S VSB 1
$$

IAZ055>058-069>071-079>083-090>094-282200-
   SOUTHWEST IOWA

CITY           SKY/WX    TMP DP  RH WIND       PRES   REMARKS
ATLANTIC *     CLOUDY    73  70  88 SW10G18   29.84S FOG
AUDUBON *      RAIN      72  68  88 S3        29.85F
CLARINDA *     CLOUDY    79  70  73 S10       29.86F HX  81
COUNCIL BLFS * CLOUDY    73  70  88 NW14      29.85R
CRESTON *      CLOUDY    77  68  73 S16G26    29.87F
HARLAN  *      PTSUNNY   73 -33   1 SW9       29.86S
LAMONI         PTSUNNY   76  67  73 S12G20    29.89F
RED OAK *        N/A     77  72  83 SW9       29.84F
SHENANDOAH *   CLOUDY    77  73  88 S6        29.85S
$$

IAZ047>049-059>061-072>074-084-282200-
   CENTRAL IOWA

CITY           SKY/WX    TMP DP  RH WIND       PRES   REMARKS
AMES           LGT RAIN  67  67 100 CALM      29.86F FOG
ANKENY *       PTSUNNY   75  70  83 S13G21    29.84F
CHARITON *     PTSUNNY   73  66  78 S14G22    29.88F
DES MOINES     CLOUDY    78  68  71 S17G26    29.84F HX  80
GRINNELL*      LGT RAIN  70  64  83 SE17      29.89F
KNOXVILLE *    LGT RAIN  70  66  88 S14G21    29.85F
MARSHALLTOWN   LGT RAIN  64  63  96 NE17G24   29.88R
PELLA *        LGT RAIN  72  68  88 SE10G20   29.88F
PERRY *        CLOUDY    73  70  88 S3        29.84F
$$

IAZ004>006-015-016-023>025-035-036-282200-
   NORTH CENTRAL IOWA

CITY           SKY/WX    TMP DP  RH WIND       PRES   REMARKS
ALGONA *       FOG       61  59  94 E17       29.92F VSB 3/4
CLARION *      LGT RAIN  63  63 100 E12       29.90F VSB 3/4
ESTHERVILLE    CLOUDY    59  58  96 E17       29.94F
FORT DODGE *   CLOUDY    63  61  94 E10       29.87F
MASON CITY     LGT RAIN  58  58 100 E15       29.97F FOG
FOREST CITY *  DRIZZLE   57  57 100 E9G16     29.96F
IOWA FALLS *   RAIN      64  63  94 E8        29.91F
$$

IAZ007>011-017>019-026>030-037>042-050>054-066-282200-
   NORTHEAST IOWA

CITY           SKY/WX    TMP DP  RH WIND       PRES   REMARKS
CEDAR RAPIDS   CLOUDY    68  63  84 SE17G24   29.94F
CHARLES CITY * HVY RAIN  59  59 100 NE10      29.99F
CLINTON *      CLOUDY    70  63  78 SE10      30.06F
DECORAH *      LGT RAIN  59  57  94 NE9       30.02F
DUBUQUE        LGT RAIN  63  61  93 E14       30.04F
MONTICELLO *   CLOUDY    66  63  88 SE12      29.99F
OELWEIN *      LGT RAIN  63  61  94 SE18G25   29.98F
WATERLOO       TSTM      62  61  96 E28G38    29.90F VSB 1/2
$$

IAZ064-065-067-068-078-282200-
   EAST CENTRAL IOWA

CITY           SKY/WX    TMP DP  RH WIND       PRES   REMARKS
DAVENPORT      CLOUDY    71  63  75 SE9       30.03F
IOWA CITY      CLOUDY    70  63  78 SE13      29.98F
MT. PLEASANT * CLOUDY    73  59  60 S13G22    29.98S
MUSCATINE *    PTSUNNY   72  61  68 VRB5G16   30.01R
QUAD CITIES    CLOUDY    73  64  73 SE10      30.01F
$$

IAZ062-063-075>077-085>089-095>099-282200-
   SOUTHEAST IOWA

CITY           SKY/WX    TMP DP  RH WIND       PRES   REMARKS
BURLINGTON     CLOUDY    72  64  76 SE15      29.99F
FAIRFIELD *    MOSUNNY   73  61  64 S17G23    29.95F
FORT MADISON * MOSUNNY   72  63  73 S12G20    29.99F
KEOKUK *       MOSUNNY   73  63  68 SE14G20   29.98F
OSKALOOSA *    CLOUDY    73  63  68 S14G20    29.92F
CENTERVILLE *  MOSUNNY   72  64  78 S13       29.94S
OTTUMWA        CLOUDY    73  64  73 S18G25    29.91F
WASHINGTON *     N/A    N/A N/A N/A MISG        N/A
$$

ABBREVIATIONS USED IN REMARKS
   TC - TEMPERATURES IN CELSIUS
  WCI - WIND CHILL INDEX
   HX - HEAT INDEX
  VSB - VISIBILITY
$$




USA.gov is the U.S. government's official web portal to all federal, state and local government web resources and services.